Regional Weather Roundup
Issued by NWS

Home | Current Version | Previous Version | Graphics & Text | Print | Product List | Glossary On
Versions: 1 2 3 4 5 6 7 8 9 10 11 12 13 14 15 16 17 18 19 20 21 22 23 24 25 26 27 28 29 30 31 32 33 34 35 36 37 38 39 40 41 42 43 44 45 46 47 48 49 50
000
ASUS45 KBOU 030507
RWRCO

WEATHER ROUNDUP FOR COLORADO
NATIONAL WEATHER SERVICE DENVER/BOULDER CO
1000 PM MST FRI DEC 02 2016

NOTE: "FAIR" INDICATES FEW OR NO CLOUDS BELOW 12000 FEET WITH NO
SIGNIFICANT WEATHER AND/OR OBSTRUCTIONS TO VISIBILITY.

COZ001>005-013-030-031-030600-
...NORTHWEST COLORADO...

CITY           SKY/WX    TMP DP  RH WIND       PRES   REMARKS
CRAIG          CLOUDY    21  15  78 W3        30.20R
HAYDEN         NOT AVBL
MEEKER         CLOUDY    13   9  84 NE3       30.21R
MOUNT WERNER   NOT AVBL
STEAMBOAT SPGS CLOUDY    17  15  90 CALM      30.17R
WALDEN           N/A      3   0  85 SE5       30.10R WCI  -6
$$

COZ006>008-011-030600-
...WEST CENTRAL VALLEYS...

CITY           SKY/WX    TMP DP  RH WIND       PRES   REMARKS
GRAND JUNCTION FAIR      28  18  66 N6        30.20R WCI  22
MONTROSE       CLOUDY    26  24  92 SE7       30.20R WCI  18
EAGLE          FLURRIES  24  21  88 W5        30.17R WCI  18
RIFLE          MOCLDY    26  18  71 NW12      30.20R WCI  16
DELTA          CLOUDY    31  27  86 N6        30.20R WCI  25
NUCLA          FAIR      28  27  93 CALM      30.19R
$$

COZ017>023-064>068-030600-
...SOUTHWEST COLORADO...

CITY           SKY/WX    TMP DP  RH WIND       PRES   REMARKS
DURANGO        MOCLDY    28  25  88 CALM      30.08R
CORTEZ         MOCLDY    27  26  96 CALM      30.11R
PAGOSA SPRINGS FAIR      26  26  99 CALM      30.09S
TELLURIDE      LGT SNOW  18  17  95 CALM      30.10S
WOLF CREEK PAS SNOW      14  12  92 S12G18    30.10S VSB 1/2 WCI   0
$$

COZ009-010-012-014-032>034-037-058>063-030600-
...CENTRAL COLORADO...

CITY           SKY/WX    TMP DP  RH WIND       PRES   REMARKS
ASPEN          LGT SNOW  20  18  92 NW3       30.10S FOG
BUENA VISTA    LGT SNOW  17  14  88 CALM      30.13S
COPPER MTN     NOT AVBL
BERTHOUD PASS  FAIR       5  -6  61 W13G20    29.98F WCI -12
COTTONWOOD PAS MOCLDY    16  12  86 CALM      30.07S
GUNNISON       CLOUDY    16  12  84 CALM      30.12R
KREMMLING      FLURRIES  23  19  86 E5        30.14R WCI  17
LEADVILLE      CLOUDY     5   1  83 NE6       30.06S FOG     WCI  -6
SALIDA         CLOUDY    21  19  91 CALM      30.22S
SUNLIGHT       LGT SNOW N/A N/A N/A W5        30.11R
WILKERSON PASS CLOUDY     9   5  85 SW12G20   30.05S FOG     WCI  -6
$$

COZ069>075-030600-
...SAN LUIS VALLEY/SANGRE DE CRISTO MOUNTAINS...

CITY           SKY/WX    TMP DP  RH WIND       PRES   REMARKS
ALAMOSA        CLOUDY    20  18  92 CALM      30.12R
LA VETA PASS   LGT SNOW  21  18  86 NE3       30.08S
SAGUACHE       LGT SNOW  23  19  86 CALM      30.12S
$$

COZ035-036-038>040-030600-
...NORTHERN COLORADO FRONT RANGE...

CITY           SKY/WX    TMP DP  RH WIND       PRES   REMARKS
DENVER INTL AP FAIR      17  12  80 S10       30.13F WCI   5
DMNS CITY PARK   N/A     26  21  81 SE10      30.14S WCI  17
AURORA         PTCLDY    22  17  81 SW8       30.14F WCI  12
FRONT RANGE AP NOT AVBL
ERIE MUNI ARPT FAIR      22  21  95 CALM      30.15S
BOULDER MUN AP FAIR      28  19  69 SW5       30.14S WCI  23
CENTENNIAL     FAIR      23  17  78 S9        30.13F WCI  13
BROOMFIELD     CLOUDY    25  25 100 NW6       30.14F WCI  18
FORT COLLINS   NOT AVBL
LONGMONT       CLOUDY    31  27  84 CALM      30.17F
$$

COZ041-046-047-076>085-087-088-030600-
...PIKES PEAK/PALMER DIVIDE AND SOUTHERN FOOTHILLS...

CITY           SKY/WX    TMP DP  RH WIND       PRES   REMARKS
COLO. SPRINGS  NOT AVBL
A. F. ACADEMY  CLOUDY    20  17  88 SE3       30.14S
SCHRIEVER AFB  NOT AVBL
ELLICOTT       CLOUDY   N/A N/A N/A S5        30.17S
FALCON         CLOUDY    23  16  75 S9        30.16S WCI  13
FORT CARSON    CLOUDY    27  17  66 S9        30.17S WCI  18
LIMON          FAIR      16  14  92 S3        30.19S
MONUMENT HILL  FAIR      14  12  92 SW7       30.13F WCI   4
TRINIDAD       LGT SNOW  29  23  78 E5        30.20R WCI  24
$$

COZ042>045-048>051-090-091-030600-
...NORTHEAST COLORADO...

CITY           SKY/WX    TMP DP  RH WIND       PRES   REMARKS
GREELEY ARPT   FAIR      25  18  74 SE3       30.17F
AKRON          CLOUDY    26  20  77 S8        30.19R WCI  18
BURLINGTON     CLOUDY    30  17  58 S10       30.25R WCI  21
WRAY           MOCLDY    27  19  74 W5        30.24S WCI  21
STERLING       FAIR      21  18  86 W5        30.20R WCI  15
HOLYOKE        FAIR      28  21  74 SW7       30.23S WCI  21
FORT MORGAN    FAIR      23  18  81 SW3       30.19S
$$

COZ086-089-092>099-030600-
...SOUTHEAST COLORADO...

CITY           SKY/WX    TMP DP  RH WIND       PRES   REMARKS
PUEBLO         CLOUDY    30  22  72 S3        30.21S
LA JUNTA       CLOUDY    34  18  52 S3        30.23S
LAMAR          MIX PCPN  35  18  49 E5        30.24R WCI  31
SPRINGFIELD      N/A     34  13  41 CALM      30.22S
$$



USA.gov is the U.S. government's official web portal to all federal, state and local government web resources and services.